Theta_e
311 311 311 310 310 310 309 309 308 306 305 305 306 307 307 306 306 307 311 312 309 306 307 307 307 307 308 309 307 311 312 315 314 308 306 305 305 307 307 311 312 309 308 306 308 306 302 322 321 315 325 329 327 327
311 311 311 310 310 310 310 309 309 307 305 305 306 306 306 306 306 305 309 313 311 306 307 310 309 309 309 309 307 312 314 314 314 312 311 313 307 311 310 304 315 308 315 311 312 313 325 330 333 336 335 332 331 331
311 311 311 310 310 310 310 309 309 308 306 305 305 306 306 306 305 304 308 312 312 308 308 308 309 315 316 315 315 308 313 312 316 317 314 312 307 313 304 306 310 316 319 313 315 320 326 329 333 335 336 335 333 334
311 311 311 310 310 309 310 309 309 308 306 305 305 305 305 305 305 304 310 313 312 309 302 308 314 312 316 317 314 315 312 315 313 313 313 311 307 314 308 310 311 315 314 314 312 321 325 330 333 334 336 338 334 334
311 311 310 310 310 310 310 309 308 308 307 306 305 305 305 305 305 307 314 315 315 308 304 306 311 313 316 315 313 314 316 313 311 309 308 308 309 311 313 312 309 315 317 312 315 327 326 332 334 335 334 334 335 335
311 311 310 310 309 310 309 309 308 308 307 306 305 304 305 305 306 309 308 316 317 314 307 302 313 312 313 314 313 314 315 313 311 308 308 311 313 309 306 305 318 319 320 321 323 328 331 333 334 336 333 335 336 336
311 311 310 309 309 309 309 309 309 308 307 306 304 304 305 305 305 305 305 309 305 314 307 302 304 311 313 313 312 312 314 312 309 310 305 307 307 310 306 303 314 319 322 327 329 329 326 330 330 336 333 334 332 335
310 310 310 309 309 309 309 309 309 308 306 305 304 305 305 305 304 305 312 307 307 310 308 302 305 307 313 307 306 313 308 309 308 307 306 306 307 306 302 312 317 317 322 324 323 325 325 330 331 331 333 330 324 323
310 310 309 308 308 308 309 309 308 307 305 304 304 305 307 307 307 311 308 308 315 310 304 303 300 300 313 308 312 312 310 303 309 303 302 305 302 298 307 310 312 317 319 321 321 321 319 320 325 328 328 322 318 321
310 309 308 308 308 308 308 308 308 306 305 304 304 305 303 309 308 310 310 308 307 307 306 301 307 305 309 307 306 306 309 303 301 303 307 301 300 309 310 313 315 315 316 319 318 317 318 317 321 323 325 323 318 320
307 307 307 307 308 308 308 308 307 305 302 302 303 306 311 305 310 308 303 301 303 300 303 303 304 303 311 305 305 308 305 305 298 303 302 300 299 308 314 313 316 316 317 319 322 322 322 323 321 321 320 320 321 322
305 306 306 306 307 308 308 307 305 303 304 303 307 308 311 306 304 299 298 301 300 298 303 301 303 305 310 313 310 309 303 304 298 307 302 297 311 315 315 314 315 317 317 318 319 319 320 321 321 321 321 321 322 323
306 305 305 306 307 307 307 306 305 303 303 309 307 303 305 302 293 292 291 296 298 303 306 306 303 305 309 311 307 304 299 299 307 300 299 307 314 315 315 315 316 316 316 316 316 317 317 317 318 317 319 320 321 321
305 305 305 306 307 307 306 305 303 303 305 302 299 289 296 293 296 297 298 302 307 311 307 309 308 303 308 307 306 300 304 304 298 296 299 310 312 313 314 314 314 314 316 316 316 316 316 316 317 319 320 321 321 321
305 305 306 306 306 306 305 303 304 306 306 300 300 291 294 301 303 306 307 308 309 313 311 310 309 308 305 303 305 302 298 297 298 301 309 315 317 315 315 315 316 315 316 316 317 317 317 318 318 319 321 322 322 321
304 305 304 307 307 306 305 304 304 308 306 302 301 298 303 299 300 302 304 305 310 311 313 310 304 301 300 301 298 297 296 296 303 310 315 317 316 315 315 316 315 316 317 317 317 318 318 319 319 319 320 321 319 318
304 302 306 306 306 305 305 304 305 301 301 299 299 304 303 303 303 305 307 309 314 311 306 309 298 298 304 300 297 305 303 306 311 313 318 318 316 315 316 316 317 316 316 315 315 316 318 320 320 320 319 320 320 320
303 305 306 305 304 302 304 304 303 300 296 300 299 301 304 305 305 309 310 312 313 312 310 305 308 301 299 296 301 307 310 312 313 313 313 315 316 317 316 316 314 316 316 316 319 318 319 319 317 316 318 318 319 318
305 307 304 304 303 300 299 301 304 297 299 302 305 306 306 306 311 312 312 313 314 316 311 307 302 300 301 307 306 311 312 315 315 314 314 317 317 316 315 315 317 317 315 315 317 318 319 319 317 317 317 317 316 315
305 304 305 304 301 299 294 299 306 300 298 302 304 303 306 310 311 311 310 311 310 309 305 303 303 306 308 310 312 313 314 315 313 310 310 312 314 316 315 317 316 317 317 315 317 309 317 315 316 317 315 313 313 314
304 303 302 303 305 304 301 300 300 303 303 304 306 308 307 311 309 307 306 312 307 304 302 305 308 311 315 316 315 315 315 315 311 310 309 308 312 314 315 313 314 317 313 311 314 310 312 316 317 317 315 316 317 314
302 302 305 304 303 304 303 307 305 308 307 307 306 307 306 306 306 305 311 305 306 306 310 309 311 312 313 314 315 316 315 315 315 311 303 308 312 311 311 310 312 311 312 314 316 315 314 317 315 312 311 314 310 314
301 305 307 304 299 298 298 309 302 304 300 303 305 302 303 305 305 310 304 308 308 312 313 314 313 315 312 314 314 314 315 313 311 312 313 312 312 312 312 311 311 310 309 315 317 314 310 304 310 312 314 313 313 311
300 302 297 297 299 295 302 300 305 304 303 301 300 298 301 303 308 304 302 306 308 311 310 312 311 310 313 313 311 312 313 315 314 315 314 310 310 309 314 315 315 317 315 312 312 311 312 312 307 313 312 312 312 311
294 293 296 288 300 296 295 296 297 299 296 298 297 298 301 305 301 298 299 302 308 309 311 312 312 313 312 311 312 310 312 312 310 308 310 313 309 310 314 315 314 312 313 312 311 311 312 312 312 311 311 311 311 310
287 296 292 296 297 295 297 293 294 294 297 296 298 303 304 301 295 291 302 304 306 308 309 313 312 312 311 313 307 309 311 312 312 310 311 313 310 309 308 307 309 311 315 313 312 311 311 311 309 310 310 310 301 310
289 293 300 305 304 302 301 302 302 301 294 294 300 298 300 293 293 301 306 311 311 314 315 315 314 313 313 310 310 312 315 317 315 312 313 313 313 314 312 310 311 312 315 314 314 313 311 311 310 310 310 313 312 312
298 299 293 299 300 303 296 297 295 294 297 302 301 295 294 296 297 306 309 313 314 315 314 316 316 312 312 312 315 316 315 317 317 316 315 314 315 315 316 315 315 299 314 315 314 314 314 313 312 310 311 312 313 315
298 301 300 296 297 299 298 298 296 299 302 301 298 298 300 305 309 309 312 313 313 314 311 310 311 314 315 315 316 314 314 314 311 308 308 307 311 311 315 315 313 314 314 314 298 302 312 313 313 311 313 313 314 314
298 305 296 295 294 294 299 302 304 307 308 304 304 303 303 306 309 312 310 312 312 309 312 312 313 313 312 311 312 314 316 315 314 311 308 309 310 314 314 313 314 314 315 314 314 313 300 308 307 312 311 312 312 313
302 301 298 298 296 300 304 307 308 307 305 303 304 301 301 305 309 312 312 312 313 313 313 313 312 312 311 312 311 310 309 314 314 314 314 314 313 313 314 315 315 315 315 317 314 313 314 311 312 312 311 311 311 309
297 295 295 294 297 303 306 303 303 302 303 302 302 304 304 305 304 310 314 316 313 313 311 309 311 312 316 316 316 317 304 316 317 317 315 314 315 315 316 315 315 315 314 313 314 313 313 313 311 312 312 311 311 310
299 300 300 300 299 299 302 303 303 302 303 304 304 304 305 305 304 310 317 318 316 314 313 315 316 317 318 318 318 317 310 317 305 293 295 293 291 300 313 315 317 317 314 313 313 313 312 311 311 311 311 310 309 309
Wind_Speed
24 23 20 19 17 14 12 10 7 5 5 7 9 11 13 15 17 10 4 4 7 5 4 4 5 6 8 6 10 11 8 7 8 9 10 7 9 11 12 7 12 15 14 13 15 11 7 5 2 5 9 4 8 9
25 23 21 20 18 15 13 11 9 7 5 5 7 9 11 13 17 15 2 1 4 6 7 5 7 7 7 7 8 7 6 5 7 6 4 4 9 1 16 7 3 3 7 4 11 6 1 10 10 9 4 6 7 8
24 23 22 20 19 16 14 12 10 8 6 5 5 7 9 12 14 13 5 4 5 4 6 8 5 6 3 3 6 6 5 6 2 7 6 3 1 14 5 7 5 5 3 0 7 6 10 7 7 8 4 6 6 8
25 23 22 20 19 17 14 12 11 9 8 6 5 6 9 11 13 12 5 5 5 5 6 7 4 4 0 2 1 2 5 5 6 5 3 4 9 12 10 6 8 7 5 3 2 7 6 8 9 6 6 4 6 6
24 23 22 21 19 17 15 12 11 9 8 6 5 6 8 11 13 9 4 3 4 7 7 5 6 4 8 5 3 1 2 5 3 3 5 3 7 9 8 7 3 5 6 1 4 7 5 10 5 1 4 7 6 8
23 23 23 21 20 17 15 13 11 10 8 6 4 6 8 10 13 7 6 3 4 5 6 4 8 6 6 5 5 2 2 3 3 4 2 2 3 5 7 9 13 8 6 9 7 4 6 6 4 2 5 6 7 8
22 23 23 21 19 17 15 12 11 10 9 6 3 6 8 9 8 4 7 6 8 6 5 5 5 8 5 7 8 7 6 3 4 2 4 8 8 5 8 10 6 7 8 7 7 1 5 7 7 7 8 7 5 10
20 22 24 22 19 17 15 12 10 10 8 5 5 7 9 11 12 6 4 6 6 6 4 5 1 5 9 8 8 4 6 5 6 3 2 3 2 4 7 5 3 9 14 4 6 9 7 5 6 8 7 12 17 12
21 25 24 22 19 16 14 12 11 10 7 5 7 9 6 6 4 6 4 2 5 6 5 4 8 5 6 9 2 2 3 6 5 6 7 8 8 8 7 2 2 5 6 6 3 1 2 2 6 13 13 12 7 4
24 29 26 22 19 17 15 13 12 9 7 6 7 7 5 5 5 6 4 5 6 6 5 7 4 3 3 6 7 4 4 7 5 8 7 6 11 4 6 5 5 5 4 5 6 6 5 4 3 4 11 7 15 14
22 23 22 21 19 17 16 14 12 10 5 6 5 0 7 3 6 4 3 5 5 5 6 7 6 6 5 5 4 7 2 4 6 5 5 6 7 9 8 4 3 4 4 3 3 3 3 6 3 5 4 4 6 5
21 19 16 17 17 16 17 15 14 8 2 3 3 1 3 5 3 4 5 4 5 5 5 5 5 7 3 2 2 4 3 4 6 2 4 8 7 8 8 7 4 6 6 7 6 5 5 5 6 5 4 3 2 1
19 20 18 16 16 17 16 15 13 4 5 4 5 5 2 3 1 6 8 6 5 4 4 6 6 4 3 4 4 3 4 6 5 4 5 5 7 7 4 6 6 5 4 4 5 4 4 3 1 3 6 6 6 6
18 18 18 14 15 16 15 13 8 5 6 5 5 1 6 6 7 5 7 4 8 1 5 3 3 5 3 2 5 4 4 4 6 6 2 5 8 6 5 4 4 4 4 5 5 5 5 6 6 7 7 7 7 7
16 17 16 17 16 15 14 11 8 7 4 4 4 4 8 4 2 3 4 2 4 2 3 3 3 3 6 5 3 2 5 6 2 3 4 7 9 5 6 3 2 4 6 7 7 7 8 7 7 7 7 8 8 8
18 12 5 18 17 15 12 9 6 4 3 3 4 5 2 6 7 6 7 5 5 3 3 4 3 5 5 4 3 7 4 2 5 6 5 8 7 6 4 2 5 6 7 8 9 9 8 7 7 7 8 7 7 5
17 1 20 18 16 13 10 6 6 5 4 4 5 5 6 5 2 3 3 3 3 3 4 2 4 6 3 3 4 2 2 4 5 4 5 6 5 5 5 5 8 7 8 6 6 6 7 7 6 6 7 7 6 4
2 15 23 19 12 7 5 5 4 4 6 6 4 6 5 1 2 1 3 3 1 2 3 3 3 3 4 3 2 3 6 6 3 5 5 5 4 4 5 6 4 5 6 5 7 6 5 6 5 3 5 5 5 6
15 17 22 16 6 4 5 5 4 4 8 6 3 3 4 5 4 4 4 3 4 2 4 2 4 2 3 2 6 4 4 2 1 2 4 4 3 5 5 5 4 3 3 2 5 3 3 5 5 5 6 5 4 6
23 21 17 8 5 1 2 2 2 5 4 4 7 8 3 1 5 7 5 5 6 7 4 4 4 4 3 6 5 4 2 1 4 4 2 5 5 4 4 6 4 6 2 4 3 3 3 3 3 1 4 4 4 4
18 9 6 7 8 5 4 4 6 3 3 3 3 3 3 5 5 3 2 3 5 2 3 1 3 6 8 7 5 6 2 3 6 5 6 6 5 4 4 3 3 3 3 2 1 2 2 3 4 3 3 3 3 2
9 6 4 4 4 5 3 3 2 1 2 3 5 5 4 5 5 2 1 5 3 1 1 3 3 2 4 3 3 4 6 5 5 4 5 1 2 2 1 2 1 2 1 3 3 3 3 3 4 3 3 2 3 8
4 3 3 3 2 1 4 3 5 4 4 6 4 4 3 3 4 2 4 2 3 4 3 2 4 2 4 4 5 5 5 6 6 2 0 1 1 2 1 1 2 3 2 2 4 6 6 1 5 6 6 7 8 5
4 3 3 2 4 2 4 4 3 2 3 4 4 4 2 3 1 3 2 1 4 3 3 3 4 4 3 2 4 3 3 2 2 1 0 2 1 1 5 6 6 5 5 5 4 7 7 6 5 5 2 4 5 4
2 3 2 4 4 4 5 4 2 2 3 2 3 2 4 1 1 3 2 4 2 1 2 3 3 2 2 3 2 3 1 1 1 2 3 5 5 4 5 7 8 7 6 6 6 7 8 6 5 3 6 7 8 5
1 5 3 3 3 2 3 4 3 3 2 2 1 3 2 2 2 2 2 5 3 1 2 3 4 1 1 2 1 1 1 3 5 6 9 9 8 7 5 5 4 5 3 5 7 5 3 6 2 3 3 6 4 9
3 2 4 3 2 1 1 2 2 1 3 3 3 3 1 2 3 1 4 3 2 4 4 2 1 1 2 1 1 4 5 8 7 4 4 4 6 6 4 3 4 2 6 6 7 7 0 3 3 5 6 3 5 3
3 4 3 4 3 3 2 2 4 5 4 3 2 4 2 2 1 2 5 4 4 3 2 2 2 1 1 4 5 8 8 6 4 6 7 5 4 2 3 4 8 6 7 6 4 3 2 5 2 2 8 4 2 1
2 2 3 5 5 3 4 2 1 2 3 3 3 1 3 4 4 4 3 3 0 2 2 2 2 5 8 8 7 4 4 6 5 5 8 2 8 3 5 5 8 8 8 9 4 3 4 6 7 5 8 4 4 4
1 1 1 2 2 0 2 1 3 4 4 1 2 3 4 2 1 1 1 3 3 3 7 8 7 5 3 4 6 9 10 10 10 8 7 10 9 10 7 4 5 4 3 3 8 9 6 7 8 7 8 8 3 5
3 0 2 1 2 3 5 4 3 2 2 2 3 2 3 2 1 1 2 4 7 9 8 7 9 10 11 9 5 7 9 6 7 2 7 5 5 4 4 4 3 3 3 2 3 5 4 5 6 8 5 0 2 4
2 3 2 3 3 1 1 1 1 1 1 1 2 3 3 4 7 5 8 8 8 7 9 1 3 9 1 3 4 7 14 4 1 2 4 4 1 3 3 4 3 2 4 5 6 6 4 6 7 6 4 5 3 4
2 3 3 0 1 1 2 4 5 6 4 4 4 7 7 7 8 6 9 9 8 5 2 2 4 4 4 2 4 1 3 8 8 7 6 8 9 10 6 6 0 2 7 5 6 6 6 4 6 5 6 5 4 4
Wind_Direction
195 198 199 200 199 202 208 216 227 251 293 318 332 349 351 346 339 327 78 345 317 309 21 359 354 338 336 359 326 20 256 196 249 261 247 262 264 242 234 68 301 196 212 230 227 260 155 36 262 256 93 119 128 130
192 192 194 196 195 196 199 208 213 225 256 297 322 341 348 345 339 338 269 333 312 268 8 322 298 297 293 310 312 308 344 6 2 286 346 15 285 253 272 195 140 287 359 9 14 76 347 63 62 90 57 103 106 112
186 191 191 191 192 191 193 200 206 216 240 269 314 333 341 342 341 340 327 335 263 266 235 223 161 114 260 284 313 298 97 337 51 325 342 323 1 299 249 246 203 158 327 1 155 59 93 106 120 92 67 91 120 117
185 186 186 186 187 185 189 196 201 207 228 254 296 325 333 336 334 327 316 359 278 299 277 111 149 169 114 117 259 355 338 292 278 286 316 317 337 348 315 23 283 35 177 102 288 125 136 98 72 65 96 120 132 122
179 178 182 183 181 181 185 187 201 206 217 244 281 316 325 331 325 293 277 16 8 320 330 46 148 163 160 156 161 145 318 300 310 243 223 338 324 335 296 306 236 198 55 101 56 24 5 74 64 31 108 121 128 122
176 177 177 179 177 176 180 187 193 204 215 232 271 310 317 328 323 270 191 136 357 353 275 236 95 174 176 191 195 212 247 252 281 307 128 275 0 310 290 320 2 54 30 20 54 34 48 73 63 100 92 119 136 124
178 177 173 173 172 171 176 183 189 196 212 224 258 290 309 317 299 315 3 16 340 298 254 251 185 166 205 200 215 225 167 228 281 210 230 156 251 282 283 282 119 281 84 81 64 89 136 170 141 78 90 93 114 119
179 177 169 165 168 167 169 176 182 191 203 214 259 287 292 294 276 240 120 238 275 267 264 268 204 180 183 222 220 176 251 192 180 248 112 201 345 179 273 75 85 16 310 103 72 42 39 74 76 131 100 67 49 15
180 172 160 156 161 162 165 169 177 186 193 223 263 279 258 223 229 66 88 177 239 299 296 245 272 93 176 249 357 173 257 247 122 227 204 172 187 207 250 333 4 56 341 346 344 347 356 18 95 137 120 110 96 56
183 162 153 153 158 162 162 167 171 173 190 237 252 213 181 64 126 177 181 198 200 189 225 262 313 281 199 204 192 250 175 262 215 205 125 212 240 133 116 28 334 333 304 285 277 231 205 207 59 28 134 149 163 166
122 137 142 154 162 156 159 163 160 160 206 217 215 128 78 134 227 219 214 220 185 224 199 235 279 292 141 258 60 303 268 352 243 190 216 207 225 133 114 92 1 6 335 53 31 8 40 19 101 147 86 59 86 69
139 142 148 151 153 159 160 160 165 205 176 18 349 189 159 220 215 226 204 195 235 226 144 220 190 228 107 296 337 327 259 304 259 78 237 248 96 119 124 112 89 65 64 61 50 50 61 58 28 358 322 17 15 18
142 142 148 158 165 161 156 163 186 293 232 190 225 174 211 144 177 217 187 203 197 156 152 193 183 213 153 238 271 189 250 242 327 246 237 62 122 96 93 118 110 78 68 65 62 42 23 9 337 4 321 310 329 320
150 149 147 157 156 149 154 163 182 215 259 214 154 33 220 193 226 202 226 154 78 101 166 208 151 205 151 136 231 247 288 277 231 218 234 122 138 121 113 51 66 61 23 11 7 353 333 346 340 326 324 338 323 323
147 149 146 154 145 148 155 166 197 224 258 217 208 222 202 271 274 212 7 53 149 228 81 215 253 199 191 220 221 215 226 237 306 18 95 131 135 145 112 79 339 359 357 338 336 326 330 332 320 316 327 327 316 324
145 134 149 145 145 147 153 182 198 237 217 233 240 237 159 216 183 198 184 210 131 189 139 251 216 206 214 222 199 221 267 349 38 31 99 122 127 118 110 13 8 357 345 342 333 336 329 316 336 334 308 324 352 346
163 77 146 137 140 155 193 231 199 218 235 214 211 253 221 276 148 140 129 83 93 136 199 271 235 199 278 250 235 262 14 77 107 113 112 107 89 53 21 356 17 351 328 336 328 323 313 297 300 338 2 8 347 344
138 134 130 132 144 157 173 240 220 227 215 231 225 177 222 305 240 193 187 163 148 191 203 237 249 195 208 254 350 2 66 60 94 137 84 80 41 16 7 13 351 6 342 343 319 310 345 8 16 353 323 12 338 15
138 136 139 155 173 208 181 181 276 228 231 172 194 176 191 218 89 221 229 153 238 304 269 237 224 169 323 296 87 63 80 92 116 263 125 121 37 3 352 301 309 5 317 354 335 359 2 346 16 6 12 359 11 36
127 137 154 180 294 208 225 166 234 263 238 186 224 186 177 349 207 213 162 180 193 199 214 219 25 283 16 47 72 108 156 8 316 314 305 123 76 4 0 328 6 329 21 343 339 340 39 36 33 8 50 38 14 31
138 137 170 220 201 223 253 199 203 241 266 216 219 184 178 188 237 187 164 164 221 223 215 274 25 60 26 17 6 4 55 330 329 345 338 316 34 353 344 311 332 337 65 21 327 53 327 42 30 36 108 145 123 129
118 201 230 182 235 207 242 263 259 244 226 200 182 204 178 175 184 203 75 240 245 112 19 19 36 105 174 197 15 1 355 318 283 275 202 195 303 331 256 296 274 114 138 222 209 134 99 41 48 34 291 357 266 110
194 229 234 230 246 152 238 193 217 200 200 179 181 175 189 146 110 191 233 288 31 40 24 357 63 347 324 344 335 313 298 292 276 323 88 313 292 258 108 126 154 171 227 200 167 113 95 177 180 221 226 224 232 189
181 265 267 240 208 239 164 183 207 210 173 177 175 150 124 71 70 222 286 282 88 72 217 193 237 241 173 228 273 1 30 315 326 19 101 186 165 188 211 194 182 188 193 132 125 136 168 174 229 243 288 44 53 42
271 298 192 287 240 189 188 162 170 88 143 171 70 130 120 244 231 63 233 275 186 225 132 179 227 254 300 342 56 22 9 270 247 155 192 185 170 216 227 228 209 180 164 152 157 155 169 181 213 349 355 51 340 44
299 186 183 223 153 200 182 125 168 185 100 133 153 75 206 258 94 262 279 39 42 263 326 317 260 197 264 89 90 274 187 232 207 172 154 170 180 205 162 190 167 150 106 31 28 352 342 80 349 293 147 129 165 276
254 172 167 217 234 131 111 47 43 206 206 210 198 171 192 235 210 248 60 29 18 26 17 12 283 235 116 135 202 247 231 216 209 165 154 215 226 216 118 78 304 282 122 156 185 194 184 347 307 349 339 356 91 25
242 309 139 190 184 204 204 218 195 208 215 175 159 219 220 228 84 40 41 14 8 4 49 43 33 92 142 209 234 203 190 162 160 232 241 185 142 79 166 177 82 35 341 23 10 303 264 258 283 248 304 333 123 58
231 215 231 206 228 174 232 174 30 348 3 340 281 254 346 34 26 353 346 24 67 238 129 138 201 211 207 221 214 171 178 189 193 207 124 263 275 312 178 170 146 205 200 150 155 318 360 352 360 350 304 300 248 261
261 76 246 268 225 141 355 20 87 40 38 66 338 325 323 315 16 337 272 216 170 178 172 189 177 208 204 234 196 208 211 201 215 225 252 196 209 203 192 167 205 213 195 204 177 161 198 215 204 232 246 265 355 327
288 260 42 323 280 287 356 22 31 46 140 211 183 222 253 290 205 191 198 204 195 182 198 217 224 213 223 231 77 29 318 277 121 61 330 341 95 112 169 165 179 189 194 248 296 299 296 274 313 302 315 25 257 322
173 191 232 230 214 246 337 27 19 68 121 183 198 227 227 192 115 134 163 170 200 218 221 168 319 268 131 345 312 154 194 312 135 224 201 260 344 117 158 233 242 321 319 297 283 294 309 313 317 330 338 339 12 336
207 203 228 332 37 54 233 196 181 166 187 140 126 153 136 137 137 159 177 212 230 235 221 309 345 25 69 289 321 52 338 60 55 41 34 43 36 13 325 309 47 295 293 287 294 306 323 5 322 350 323 311 313 322